Weather History for Provo, UT

Change the Weather History Date:

Wednesday, January 2, 2013

  Actual Average Record
Temperature  
Mean Temperature 4 °F -  
Max Temperature 10 °F 34 °F 55 °F (1997)
Min Temperature -2 °F 21 °F -11 °F (1988)
Degree Days  
Heating Degree Days 61    
Moisture  
Dew Point -1 °F    
Average Humidity 90    
Maximum Humidity 100    
Minimum Humidity 56    
Precipitation  
Precipitation 0.00 in - - ()
Sea Level Pressure  
Sea Level Pressure 30.42 in    
Wind  
Wind Speed 0 mph (SW)    
Max Wind Speed 4 mph    
Max Gust Speed -    
Visibility 6 miles    
Events      
Averages and records for this station are not official NWS values.
T = Trace of Precipitation, MM = Missing Value Source: NWS Daily Summary

Daily Weather History Graph

Daily Weather History Graph

Search for Another Location

Airport:

Trip Planner

Search our weather history database for the weather conditions in past years. The results will help you decide how hot, cold, wet, or windy it might be!

Date:

Astronomy

Jan. 02, 2013 Rise Set
Actual Time 7:49 AM MST 5:12 PM MST
Civil Twilight 7:19 AM MST 5:43 PM MST
Nautical Twilight 6:45 AM MST 6:17 PM MST
Astronomical Twilight 6:12 AM MST 6:50 PM MST
Moon 10:49 PM MST (1/2) 10:32 AM MST (1/2)
Length of Visible Light 10h 24m
Length of Day
9h 23m
Waning Gibbous, 74% of the Moon is Illuminated
Jan 2
Waning Gibbous
Jan 4
Last Quarter
Jan 11
New
Jan 18
First Quarter
Jan 26
Full

Hourly Weather History & Observations

Time (MST) Temp. Windchill Dew Point Humidity Pressure Visibility Wind Dir Wind Speed Gust Speed Precip Events Conditions
12:15 AM 1.4 °F - -0.4 °F 92% 30.42 in 2.5 mi Calm Calm - N/A   Clear
12:35 AM 1.4 °F - -2.2 °F 85% 30.42 in 5.0 mi Calm Calm - N/A   Clear
1:15 AM 1.4 °F - -2.2 °F 85% 30.42 in 7.0 mi Calm Calm - N/A   Clear
1:35 AM 1.4 °F - -2.2 °F 85% 30.41 in 7.0 mi Calm Calm - N/A   Clear
3:55 AM 1.4 °F - -11.2 °F 56% 30.40 in 4.0 mi Calm Calm - N/A   Unknown
4:15 AM -0.4 °F - -0.4 °F 100% 30.40 in 6.0 mi Calm Calm - N/A   Unknown
4:35 AM -0.4 °F - -9.4 °F 66% 30.40 in 7.0 mi Calm Calm - N/A   Unknown
4:55 AM -2.2 °F - -2.2 °F 100% 30.40 in 6.0 mi Calm Calm - N/A   Clear
5:15 AM -2.2 °F - -7.6 °F 78% 30.40 in 6.0 mi Calm Calm - N/A   Clear
5:35 AM -2.2 °F - -2.2 °F 100% 30.41 in 7.0 mi Calm Calm - N/A   Clear
5:55 AM -2.2 °F - -5.8 °F 85% 30.40 in 5.0 mi Calm Calm - N/A   Clear
6:15 AM -0.4 °F - -2.2 °F 92% 30.41 in 6.0 mi Calm Calm - N/A   Clear
6:35 AM -2.2 °F - -7.6 °F 78% 30.42 in 6.0 mi Calm Calm - N/A   Clear
6:52 AM -2.2 °F - -2.2 °F 100% 30.41 in 10.0 mi Calm Calm - N/A   Partly Cloudy
7:55 AM -2.2 °F - -4.0 °F 92% 30.43 in 7.0 mi Calm Calm - N/A   Partly Cloudy
8:48 AM -0.4 °F - -0.4 °F 100% 30.43 in 7.0 mi Calm Calm - N/A   Partly Cloudy
9:47 AM 1.4 °F - 1.4 °F 100% 30.44 in 7.0 mi Calm Calm - N/A   Partly Cloudy
10:52 AM 3.2 °F -4.2 °F 1.4 °F 92% 30.45 in 7.0 mi SW 3.5 mph - N/A   Partly Cloudy
11:50 AM 6.8 °F - 5.0 °F 92% 30.44 in 6.0 mi Calm Calm - N/A   Haze
12:50 PM 6.8 °F - 5.0 °F 92% 30.41 in 6.0 mi Calm Calm - N/A   Haze
1:52 PM 8.6 °F - 6.8 °F 92% 30.40 in 7.0 mi Calm Calm - N/A   Partly Cloudy
2:58 PM 8.6 °F - 6.8 °F 92% 30.40 in 7.0 mi Calm Calm - N/A   Partly Cloudy
3:47 PM 10.4 °F - 6.8 °F 85% 30.40 in 7.0 mi Calm Calm - N/A   Partly Cloudy
4:47 PM 8.6 °F - 6.8 °F 92% 30.40 in 7.0 mi Calm Calm - N/A   Scattered Clouds
5:49 PM 6.8 °F - 3.2 °F 85% 30.41 in 7.0 mi Calm Calm - N/A   Scattered Clouds
7:47 PM 3.2 °F - 1.4 °F 92% 30.43 in 10.0 mi Calm Calm - N/A   Scattered Clouds
8:48 PM 3.2 °F - 1.4 °F 92% 30.43 in 10.0 mi Calm Calm - N/A   Scattered Clouds
9:15 PM 1.4 °F - -0.4 °F 92% 30.44 in 5.0 mi Calm Calm - N/A   Clear
9:55 PM -0.4 °F - -2.2 °F 92% 30.44 in 3.0 mi Calm Calm - N/A   Clear
10:15 PM -0.4 °F - -2.2 °F 92% 30.44 in 0.2 mi Calm Calm - N/A   Unknown
10:35 PM -0.4 °F - -4.0 °F 85% 30.44 in 0.2 mi Calm Calm - N/A   Unknown
10:55 PM -2.2 °F - -2.2 °F 100% 30.44 in 0.5 mi Calm Calm - N/A   Unknown
11:15 PM -0.4 °F - -2.2 °F 92% 30.44 in 2.0 mi Calm Calm - N/A   Scattered Clouds
11:35 PM -0.4 °F - -2.2 °F 92% 30.44 in 3.0 mi Calm Calm - N/A   Clear
11:55 PM -0.4 °F - -2.2 °F 92% 30.44 in 5.0 mi Calm Calm - N/A   Clear